Terminal Aerodrome Forecast
Issued by NWS Huntsville, AL

Home | Current Version | Previous Version | Text Only | Print | Product List | Glossary On
Versions: 1 2 3 4 5 6 7 8 9 10 11 12 13 14 15 16 17 18 19 20 21 22 23 24 25 26 27 28 29
000
FTUS44 KHUN 201720
TAFHSV
TAF
KHSV 201720Z 2018/2118 01005KT P6SM SKC
     FM210000 VRB04KT P6SM FEW250
     FM210900 04005KT 5SM BR FEW250
     FM211400 08005KT P6SM FEW250=

USA.gov is the U.S. government's official web portal to all federal, state and local government web resources and services.